| time (UTC) | temp F | wind direction | speed MPH | gust MPH | rain 1hr in | rain 24hr in | rain mn in | humidity % | barometer mb |
| 20260905184228 | 74 | 316 | 0.0 | 0.0 | 0.00 | 0.00 | 0.00 | 74 | 1032.7 |
| 20260905183227 | 74 | 326 | 0.0 | 0.0 | 0.00 | 0.00 | 0.00 | 73 | 1032.5 |
| 20260905182228 | 74 | 326 | 0.0 | 0.0 | 0.00 | 0.00 | 0.00 | 71 | 1032.7 |
| 20260905181326 | 74 | 332 | 0.0 | 0.0 | 0.00 | 0.00 | 0.00 | 70 | 1032.8 |
| 20260905180329 | 74 | 318 | 0.0 | 0.0 | 0.00 | 0.00 | 0.00 | 71 | 1032.8 |
| 20260905175327 | 74 | 333 | 0.0 | 0.0 | 0.00 | 0.00 | 0.00 | 71 | 1032.8 |
| 20260905174327 | 74 | 329 | 0.0 | 0.0 | 0.00 | 0.00 | 0.00 | 70 | 1032.8 |
| 20260905173329 | 73 | 337 | 0.0 | 0.0 | 0.00 | 0.00 | 0.00 | 70 | 1032.9 |
| 20260905172328 | 72 | 334 | 0.0 | 0.0 | 0.00 | 0.00 | 0.00 | 71 | 1032.6 |
| 20260905171327 | 72 | 318 | 0.0 | 0.0 | 0.00 | 0.00 | 0.00 | 71 | 1032.6 |
| 20260905170328 | 71 | 319 | 0.0 | 0.0 | 0.00 | 0.00 | 0.00 | 72 | 1032.7 |
| 20260905165326 | 71 | 316 | 0.0 | 0.0 | 0.00 | 0.00 | 0.00 | 72 | 1032.7 |
| 20260905164327 | 71 | 329 | 0.0 | 0.0 | 0.00 | 0.00 | 0.00 | 73 | 1032.5 |
| 20260905163328 | 70 | 337 | 0.0 | 0.0 | 0.00 | 0.00 | 0.00 | 77 | 1032.4 |
| 20260905162329 | 69 | 315 | 0.0 | 0.0 | 0.00 | 0.00 | 0.00 | 78 | 1032.6 |
| 20260905161426 | 69 | 315 | 0.0 | 0.0 | 0.00 | 0.00 | 0.00 | 80 | 1032.5 |
| 20260905155429 | 69 | 337 | 0.0 | 0.0 | 0.00 | 0.00 | 0.00 | 80 | 1032.6 |
| 20260905154528 | 69 | 337 | 0.0 | 0.0 | 0.00 | 0.00 | 0.00 | 80 | 1032.7 |
| 20260905153527 | 69 | 328 | 0.0 | 0.0 | 0.00 | 0.00 | 0.00 | 78 | 1032.6 |
| 20260905152627 | 69 | 180 | 0.0 | 0.0 | 0.00 | 0.00 | 0.00 | 78 | 1032.4 |
| 20260905151629 | 69 | 180 | 0.0 | 0.0 | 0.00 | 0.00 | 0.00 | 79 | 1032.2 |
| 20260905150627 | 69 | 180 | 0.0 | 0.0 | 0.00 | 0.00 | 0.00 | 81 | 1032.3 |
| 20260905145629 | 68 | 360 | 0.0 | 0.0 | 0.00 | 0.00 | 0.00 | 86 | 1032.2 |
| 20260905143727 | 66 | 360 | 0.0 | 0.0 | 0.00 | 0.00 | 0.00 | 87 | 1032.1 |
| 20260905142727 | 66 | 360 | 0.0 | 0.0 | 0.00 | 0.00 | 0.00 | 88 | 1031.9 |
| 20260905141728 | 65 | 360 | 0.0 | 0.0 | 0.00 | 0.00 | 0.00 | 88 | 1031.8 |
| 20260905135728 | 63 | 360 | 0.0 | 0.0 | 0.00 | 0.00 | 0.00 | 90 | 1031.8 |
| 20260905134825 | 62 | 360 | 0.0 | 0.0 | 0.00 | 0.00 | 0.00 | 90 | 1031.6 |
| 20260905132827 | 62 | 360 | 0.0 | 0.0 | 0.00 | 0.00 | 0.00 | 89 | 1031.4 |
| 20260905131829 | 63 | 360 | 0.0 | 0.0 | 0.00 | 0.00 | 0.00 | 86 | 1031.3 |
| 20260905130828 | 64 | 360 | 0.0 | 0.0 | 0.00 | 0.00 | 0.00 | 88 | 1031.2 |
| 20260905125728 | 64 | 360 | 0.0 | 0.0 | 0.00 | 0.00 | 0.00 | 89 | 1031.2 |
| 20260905124729 | 64 | 360 | 0.0 | 0.0 | 0.00 | 0.00 | 0.00 | 89 | 1031.3 |
| 20260905122827 | 63 | 360 | 0.0 | 0.0 | 0.00 | 0.00 | 0.00 | 90 | 1031.2 |
| 20260905121827 | 63 | 360 | 0.0 | 0.0 | 0.00 | 0.00 | 0.00 | 90 | 1031.3 |
| 20260905120826 | 64 | 360 | 0.0 | 0.0 | 0.00 | 0.00 | 0.00 | 90 | 1031.3 |
| 20260905115829 | 64 | 360 | 0.0 | 0.0 | 0.00 | 0.00 | 0.00 | 90 | 1031.3 |
| 20260905114926 | 64 | 360 | 0.0 | 0.0 | 0.00 | 0.00 | 0.00 | 90 | 1031.2 |
| 20260905114026 | 64 | 360 | 0.0 | 0.0 | 0.00 | 0.00 | 0.00 | 90 | 1031.2 |
| 20260905113029 | 64 | 360 | 0.0 | 0.0 | 0.00 | 0.00 | 0.00 | 91 | 1031.2 |
| 20260905111128 | 64 | 360 | 0.0 | 0.0 | 0.00 | 0.00 | 0.00 | 91 | 1031.6 |
| 20260905110226 | 64 | 360 | 0.0 | 0.0 | 0.00 | 0.00 | 0.00 | 91 | 1031.7 |
| 20260905105229 | 64 | 360 | 0.0 | 0.0 | 0.00 | 0.00 | 0.00 | 91 | 1031.5 |
| 20260905104227 | 64 | 360 | 0.0 | 0.0 | 0.00 | 0.00 | 0.00 | 91 | 1031.6 |
| 20260905103227 | 64 | 360 | 0.0 | 0.0 | 0.00 | 0.00 | 0.00 | 91 | 1031.6 |
| 20260905102227 | 64 | 360 | 0.0 | 0.0 | 0.00 | 0.00 | 0.00 | 91 | 1031.7 |
| 20260905100229 | 64 | 360 | 0.0 | 0.0 | 0.00 | 0.00 | 0.00 | 91 | 1031.7 |
| 20260905095230 | 64 | 360 | 0.0 | 0.0 | 0.00 | 0.00 | 0.00 | 91 | 1031.8 |
| 20260905094327 | 64 | 360 | 0.0 | 0.0 | 0.00 | 0.00 | 0.00 | 91 | 1031.7 |
| 20260905092328 | 64 | 360 | 0.0 | 0.0 | 0.00 | 0.00 | 0.00 | 91 | 1031.8 |
| 20260905091329 | 64 | 360 | 0.0 | 0.0 | 0.00 | 0.00 | 0.00 | 91 | 1031.8 |
| 20260905090425 | 64 | 360 | 0.0 | 0.0 | 0.00 | 0.00 | 0.00 | 91 | 1031.9 |
| 20260905085429 | 64 | 360 | 0.0 | 0.0 | 0.00 | 0.00 | 0.00 | 90 | 1032.0 |
| 20260905084427 | 64 | 360 | 0.0 | 0.0 | 0.00 | 0.00 | 0.00 | 90 | 1032.1 |
| 20260905083428 | 64 | 360 | 0.0 | 0.0 | 0.00 | 0.00 | 0.00 | 90 | 1032.2 |
| 20260905082526 | 64 | 180 | 0.0 | 0.0 | 0.00 | 0.00 | 0.00 | 90 | 1032.1 |
| 20260905081527 | 64 | 180 | 0.0 | 0.0 | 0.00 | 0.00 | 0.00 | 90 | 1032.3 |
| 20260905080531 | 64 | 180 | 0.0 | 0.0 | 0.00 | 0.00 | 0.00 | 90 | 1032.4 |
| 20260905075527 | 64 | 180 | 0.0 | 0.0 | 0.00 | 0.00 | 0.00 | 90 | 1032.5 |
| 20260905073627 | 65 | 180 | 0.0 | 0.0 | 0.00 | 0.00 | 0.00 | 89 | 1032.7 |
| 20260905071627 | 65 | 180 | 0.0 | 0.0 | 0.00 | 0.00 | 0.00 | 90 | 1032.4 |
| 20260905065734 | 64 | 182 | 0.0 | 0.0 | 0.00 | 0.00 | 0.00 | 90 | 1032.5 |
| 20260905064832 | 65 | 337 | 0.0 | 0.0 | 0.00 | 0.00 | 0.00 | 89 | 1032.6 |
| 20260905063835 | 65 | 337 | 0.0 | 0.0 | 0.00 | 0.00 | 0.00 | 89 | 1032.6 |
| 20260905062934 | 65 | 337 | 0.0 | 0.0 | 0.00 | 0.00 | 0.00 | 89 | 1032.6 |
| 20260905062034 | 65 | 337 | 0.0 | 0.0 | 0.00 | 0.00 | 0.00 | 89 | 1032.5 |
| 20260905060037 | 65 | 337 | 0.0 | 0.0 | 0.00 | 0.00 | 0.00 | 90 | 1032.4 |
| 20260905055034 | 65 | 337 | 0.0 | 0.0 | 0.00 | 0.00 | 0.00 | 89 | 1032.3 |
| 20260905054034 | 65 | 337 | 0.0 | 0.0 | 0.00 | 0.00 | 0.00 | 89 | 1032.3 |
| 20260905051135 | 65 | 337 | 0.0 | 0.0 | 0.00 | 0.00 | 0.00 | 88 | 1032.4 |
| 20260905050135 | 65 | 337 | 0.0 | 0.0 | 0.00 | 0.00 | 0.00 | 87 | 1032.4 |
| 20260905045135 | 65 | 337 | 0.0 | 0.0 | 0.00 | 0.00 | 0.00 | 87 | 1032.4 |
| 20260905043234 | 65 | 337 | 0.0 | 0.0 | 0.00 | 0.00 | 0.00 | 86 | 1032.0 |
| 20260905042235 | 66 | 337 | 0.0 | 0.0 | 0.00 | 0.00 | 0.00 | 86 | 1031.9 |
| 20260905041234 | 66 | 337 | 0.0 | 0.0 | 0.00 | 0.00 | 0.00 | 86 | 1031.9 |
| 20260905040250 | 66 | 337 | 0.0 | 0.0 | 0.00 | 0.00 | 0.00 | 86 | 1031.8 |
| 20260905035236 | 66 | 337 | 0.0 | 0.0 | 0.00 | 0.00 | 0.00 | 85 | 1031.7 |
| 20260905033233 | 67 | 337 | 0.0 | 0.0 | 0.00 | 0.00 | 0.00 | 85 | 1031.7 |
| 20260905031235 | 67 | 337 | 0.0 | 0.0 | 0.00 | 0.00 | 0.00 | 84 | 1031.3 |
| 20260905030235 | 67 | 337 | 0.0 | 0.0 | 0.00 | 0.00 | 0.00 | 83 | 1031.2 |
| 20260905025334 | 67 | 337 | 0.0 | 0.0 | 0.00 | 0.00 | 0.00 | 83 | 1031.0 |
| 20260905024333 | 68 | 315 | 0.0 | 0.0 | 0.00 | 0.00 | 0.00 | 82 | 1030.9 |
| 20260905023433 | 68 | 315 | 0.0 | 0.0 | 0.00 | 0.00 | 0.00 | 81 | 1031.1 |
| 20260905022435 | 68 | 315 | 0.0 | 0.0 | 0.00 | 0.00 | 0.00 | 80 | 1031.0 |
| 20260905020435 | 69 | 278 | 0.0 | 0.0 | 0.00 | 0.00 | 0.00 | 77 | 1031.0 |
| 20260905015534 | 70 | 180 | 0.0 | 0.0 | 0.00 | 0.00 | 0.00 | 75 | 1031.0 |
| 20260905014537 | 71 | 337 | 0.0 | 0.0 | 0.00 | 0.00 | 0.00 | 75 | 1030.9 |
| 20260905013633 | 72 | 326 | 0.0 | 0.0 | 0.00 | 0.00 | 0.00 | 73 | 1030.9 |
| 20260905012634 | 73 | 337 | 0.0 | 0.0 | 0.00 | 0.00 | 0.00 | 72 | 1030.7 |
| 20260905011635 | 73 | 324 | 0.0 | 0.0 | 0.00 | 0.00 | 0.00 | 71 | 1030.8 |
| 20260905010733 | 74 | 333 | 0.0 | 0.0 | 0.00 | 0.00 | 0.00 | 70 | 1030.9 |
| 20260905005735 | 74 | 317 | 0.0 | 0.0 | 0.00 | 0.00 | 0.00 | 69 | 1030.8 |
| 20260905004833 | 74 | 333 | 0.0 | 0.0 | 0.00 | 0.00 | 0.00 | 69 | 1030.8 |
| 20260905004733 | 74 | 335 | 0.0 | 0.0 | 0.00 | 0.00 | 0.00 | 69 | 1030.9 |
| 20260905003833 | 75 | 335 | 0.0 | 0.0 | 0.00 | 0.00 | 0.00 | 68 | 1030.8 |
| 20260905002835 | 75 | 324 | 0.0 | 0.0 | 0.00 | 0.00 | 0.00 | 68 | 1030.8 |
| 20260905001835 | 75 | 330 | 0.0 | 0.0 | 0.00 | 0.00 | 0.00 | 67 | 1030.9 |
| 20260905000833 | 76 | 336 | 0.0 | 0.0 | 0.00 | 0.00 | 0.00 | 66 | 1030.8 |
| 20260904235833 | 76 | 337 | 0.0 | 0.0 | 0.00 | 0.00 | 0.00 | 66 | 1030.9 |
| 20260904234835 | 76 | 337 | 0.0 | 0.0 | 0.00 | 0.00 | 0.00 | 66 | 1030.8 |
| 20260904232934 | 76 | 333 | 0.0 | 0.0 | 0.00 | 0.00 | 0.00 | 66 | 1030.9 |
| 20260904232032 | 76 | 326 | 0.0 | 0.0 | 0.00 | 0.00 | 0.00 | 67 | 1031.0 |
| 20260904231034 | 76 | 335 | 0.0 | 0.0 | 0.00 | 0.00 | 0.00 | 66 | 1031.0 |
| 20260904230035 | 77 | 323 | 0.0 | 0.0 | 0.00 | 0.00 | 0.00 | 66 | 1031.0 |
| 20260904225133 | 76 | 332 | 0.0 | 0.0 | 0.00 | 0.00 | 0.00 | 67 | 1031.2 |
| 20260904224135 | 76 | 336 | 0.0 | 0.0 | 0.00 | 0.00 | 0.00 | 68 | 1031.3 |
| 20260904223233 | 76 | 337 | 0.0 | 0.0 | 0.00 | 0.00 | 0.00 | 68 | 1031.2 |
| 20260904222234 | 76 | 336 | 0.0 | 0.0 | 0.00 | 0.00 | 0.00 | 68 | 1031.3 |
| 20260904220234 | 76 | 330 | 0.0 | 0.0 | 0.00 | 0.00 | 0.00 | 68 | 1031.6 |
| 20260904215234 | 76 | 332 | 0.0 | 0.0 | 0.00 | 0.00 | 0.00 | 68 | 1031.5 |
| 20260904213235 | 76 | 337 | 0.0 | 0.0 | 0.00 | 0.00 | 0.00 | 68 | 1031.6 |
| 20260904211235 | 76 | 330 | 0.0 | 0.0 | 0.00 | 0.00 | 0.00 | 70 | 1031.5 |
| 20260904210335 | 76 | 332 | 0.0 | 0.0 | 0.00 | 0.00 | 0.00 | 70 | 1031.7 |
| 20260904205336 | 76 | 329 | 0.0 | 0.0 | 0.00 | 0.00 | 0.00 | 71 | 1031.8 |
| 20260904204333 | 75 | 337 | 0.0 | 0.0 | 0.00 | 0.00 | 0.00 | 71 | 1031.8 |
| 20260904203334 | 75 | 297 | 0.0 | 0.0 | 0.00 | 0.00 | 0.00 | 69 | 1031.7 |
| 20260904202335 | 76 | 326 | 0.0 | 0.0 | 0.00 | 0.00 | 0.00 | 70 | 1031.8 |
| 20260904200334 | 75 | 326 | 0.0 | 0.0 | 0.00 | 0.00 | 0.00 | 71 | 1032.0 |
| 20260904195334 | 75 | 307 | 0.0 | 0.0 | 0.00 | 0.00 | 0.00 | 72 | 1032.0 |
| 20260904194335 | 75 | 328 | 0.0 | 0.0 | 0.00 | 0.00 | 0.00 | 71 | 1032.1 |
| 20260904193433 | 75 | 333 | 0.0 | 0.0 | 0.00 | 0.00 | 0.00 | 70 | 1032.0 |
| 20260904192434 | 75 | 335 | 0.0 | 0.0 | 0.00 | 0.00 | 0.00 | 72 | 1032.3 |
| 20260904190532 | 75 | 330 | 0.0 | 0.0 | 0.00 | 0.00 | 0.00 | 70 | 1032.4 |